Weather History for KAQP - February, 2014

Change the Weather History Date:

Saturday, February 22, 2014

  Actual Average Record
Temperature  
Mean Temperature 12 °F -  
Max Temperature 21 °F 26 °F 53 °F (1998)
Min Temperature 3 °F 10 °F -13 °F (2015)
Degree Days  
Heating Degree Days 53    
Moisture  
Dew Point 4 °F    
Average Humidity 70    
Maximum Humidity 85    
Minimum Humidity 58    
Precipitation  
Precipitation 0.00 in - - ()
Sea Level Pressure  
Sea Level Pressure 30.02 in    
Wind  
Wind Speed 13 mph (WNW)    
Max Wind Speed 23 mph    
Max Gust Speed 26 mph    
Visibility 10 miles    
Events      
Averages and records for this station are not official NWS values.
T = Trace of Precipitation, MM = Missing Value Source: NWS Daily Summary

Daily Weather History Graph

Daily Weather History Graph

Search for Another Location

Airport or City:

Trip Planner

Search our weather history database for the weather conditions in past years. The results will help you decide how hot, cold, wet, or windy it might be!

Date:

Astronomy

Feb. 22, 2014 Rise Set
Actual Time 7:14 AM CST 6:01 PM CST
Civil Twilight 6:44 AM CST 6:31 PM CST
Nautical Twilight 6:09 AM CST 7:05 PM CST
Astronomical Twilight 5:35 AM CST 7:39 PM CST
Moon 1:17 AM CST (2/22) 11:06 AM CST (2/22)
Length of Visible Light 11h 47m
Length of Day
10h 47m
Waning Gibbous, 50% of the Moon is Illuminated
Feb 22
Waning Gibbous
Mar 1
New
Mar 8
First Quarter
Mar 16
Full
Mar 23
Last Quarter

Hourly Weather History & Observations

Time (CST) Temp. Windchill Dew Point Humidity Pressure Visibility Wind Dir Wind Speed Gust Speed Precip Events Conditions
12:13 AM 8.6 °F -6.3 °F 3.2 °F 79% 29.86 in 10.0 mi WNW 11.5 mph - N/A   Clear
12:33 AM 8.6 °F -6.3 °F 3.2 °F 79% 29.87 in 10.0 mi WNW 11.5 mph - N/A   Clear
12:53 AM 8.6 °F -4.7 °F 3.2 °F 79% 29.87 in 10.0 mi WNW 9.2 mph - N/A   Clear
1:13 AM 8.6 °F -4.7 °F 3.2 °F 79% 29.88 in 10.0 mi WNW 9.2 mph - N/A   Clear
1:33 AM 8.6 °F -6.3 °F 3.2 °F 79% 29.88 in 10.0 mi WNW 11.5 mph - N/A   Clear
1:53 AM 8.6 °F -3.7 °F 1.4 °F 73% 29.88 in 10.0 mi WNW 8.1 mph - N/A   Clear
2:13 AM 6.8 °F -7.8 °F 1.4 °F 79% 29.89 in 10.0 mi WNW 10.4 mph - N/A   Clear
2:33 AM 6.8 °F -6.9 °F 1.4 °F 79% 29.90 in 10.0 mi West 9.2 mph - N/A   Clear
2:54 AM 6.8 °F -7.8 °F 1.4 °F 79% 29.90 in 10.0 mi WNW 10.4 mph - N/A   Clear
3:13 AM 6.8 °F -10.0 °F 1.4 °F 79% 29.90 in 10.0 mi WNW 13.8 mph - N/A   Clear
3:34 AM 6.8 °F -9.3 °F 1.4 °F 79% 29.90 in 10.0 mi WNW 12.7 mph - N/A   Clear
3:53 AM 8.6 °F -8.3 °F 1.4 °F 73% 29.90 in 10.0 mi WNW 15.0 mph - N/A   Clear
4:13 AM 6.8 °F -8.6 °F 1.4 °F 79% 29.90 in 10.0 mi NW 11.5 mph - N/A   Clear
4:33 AM 6.8 °F -6.9 °F 1.4 °F 79% 29.91 in 10.0 mi WNW 9.2 mph - N/A   Clear
4:53 AM 6.8 °F -8.6 °F -0.4 °F 72% 29.92 in 10.0 mi NW 11.5 mph - N/A   Clear
5:14 AM 6.8 °F -8.6 °F -0.4 °F 72% 29.93 in 10.0 mi WNW 11.5 mph - N/A   Clear
5:34 AM 6.8 °F -10.0 °F -0.4 °F 72% 29.94 in 10.0 mi NW 13.8 mph - N/A   Clear
5:53 AM 6.8 °F -7.8 °F -0.4 °F 72% 29.95 in 10.0 mi WNW 10.4 mph - N/A   Clear
6:13 AM 5.0 °F -10.0 °F -0.4 °F 78% 29.96 in 10.0 mi West 10.4 mph - N/A   Clear
6:33 AM 3.2 °F -11.3 °F -0.4 °F 85% 29.96 in 10.0 mi WNW 9.2 mph - N/A   Clear
6:53 AM 5.0 °F -10.0 °F -0.4 °F 78% 29.96 in 10.0 mi WNW 10.4 mph - N/A   Clear
7:13 AM 3.2 °F -10.3 °F -2.2 °F 78% 29.96 in 10.0 mi WNW 8.1 mph - N/A   Clear
7:33 AM 3.2 °F -10.3 °F -2.2 °F 78% 29.97 in 10.0 mi WNW 8.1 mph - N/A   Clear
7:53 AM 3.2 °F -9.1 °F -2.2 °F 78% 29.98 in 10.0 mi West 6.9 mph - N/A   Clear
8:13 AM 5.0 °F -8.1 °F -0.4 °F 78% 29.99 in 10.0 mi West 8.1 mph - N/A   Clear
8:33 AM 6.8 °F -6.9 °F -0.4 °F 72% 29.99 in 10.0 mi WNW 9.2 mph - N/A   Clear
8:53 AM 8.6 °F -8.9 °F -0.4 °F 67% 30.00 in 10.0 mi NW 16.1 mph - N/A   Clear
9:13 AM 8.6 °F -7.7 °F 1.4 °F 73% 30.01 in 10.0 mi NW 13.8 mph - N/A   Clear
9:33 AM 10.4 °F -7.7 °F 1.4 °F 67% 30.01 in 10.0 mi WNW 18.4 mph - N/A   Clear
9:53 AM 10.4 °F -6.0 °F 1.4 °F 67% 30.01 in 10.0 mi NW 15.0 mph - N/A   Clear
10:13 AM 12.2 °F -3.1 °F 3.2 °F 67% 30.01 in 10.0 mi NW 13.8 mph - N/A   Clear
10:33 AM 12.2 °F -3.7 °F 3.2 °F 67% 30.01 in 10.0 mi NW 15.0 mph - N/A   Clear
10:54 AM 14.0 °F -2.0 °F 3.2 °F 62% 30.01 in 10.0 mi NW 16.1 mph - N/A   Clear
11:14 AM 15.8 °F -0.2 °F 3.2 °F 58% 30.01 in 10.0 mi NW 17.3 mph - N/A   Clear
11:33 AM 15.8 °F 0.3 °F 5.0 °F 62% 30.02 in 10.0 mi WNW 16.1 mph - N/A   Clear
11:53 AM 15.8 °F -0.2 °F 5.0 °F 62% 30.02 in 10.0 mi WNW 17.3 mph - N/A   Clear
12:13 PM 17.6 °F 1.7 °F 6.8 °F 63% 30.02 in 10.0 mi WNW 18.4 mph 23.0 mph N/A   Clear
12:34 PM 17.6 °F 2.2 °F 6.8 °F 63% 30.02 in 10.0 mi NW 17.3 mph 23.0 mph N/A   Clear
12:53 PM 19.4 °F 4.1 °F 6.8 °F 58% 30.02 in 10.0 mi NW 18.4 mph 26.5 mph N/A   Clear
1:13 PM 19.4 °F 3.2 °F 6.8 °F 58% 30.02 in 10.0 mi NW 20.7 mph 25.3 mph N/A   Clear
1:33 PM 19.4 °F 4.1 °F 8.6 °F 63% 30.02 in 10.0 mi NW 18.4 mph 25.3 mph N/A   Scattered Clouds
1:53 PM 19.4 °F 3.6 °F 8.6 °F 63% 30.02 in 10.0 mi NW 19.6 mph - N/A   Clear
2:13 PM 21.2 °F 7.3 °F 8.6 °F 58% 30.02 in 10.0 mi NW 16.1 mph - N/A   Clear
2:33 PM 21.2 °F 5.6 °F 8.6 °F 58% 30.02 in 10.0 mi WNW 20.7 mph 24.2 mph N/A   Scattered Clouds
2:53 PM 21.2 °F 6.4 °F 8.6 °F 58% 30.03 in 10.0 mi WNW 18.4 mph - N/A   Scattered Clouds
3:13 PM 21.2 °F 6.8 °F 8.6 °F 58% 30.03 in 10.0 mi NW 17.3 mph - N/A   Clear
3:33 PM 21.2 °F 4.9 °F 8.6 °F 58% 30.03 in 10.0 mi NW 23.0 mph 26.5 mph N/A   Clear
3:53 PM 19.4 °F 3.2 °F 8.6 °F 63% 30.03 in 10.0 mi NW 20.7 mph - N/A   Clear
4:13 PM 19.4 °F 4.1 °F 8.6 °F 63% 30.04 in 10.0 mi NW 18.4 mph 24.2 mph N/A   Clear
4:34 PM 19.4 °F 3.6 °F 6.8 °F 58% 30.04 in 10.0 mi NW 19.6 mph - N/A   Clear
4:53 PM 19.4 °F 3.2 °F 6.8 °F 58% 30.05 in 10.0 mi NW 20.7 mph 25.3 mph N/A   Clear
5:13 PM 19.4 °F 5.0 °F 6.8 °F 58% 30.05 in 10.0 mi NW 16.1 mph - N/A   Clear
5:33 PM 17.6 °F 4.3 °F 6.8 °F 63% 30.06 in 10.0 mi NW 12.7 mph - N/A   Clear
5:54 PM 17.6 °F 4.3 °F 6.8 °F 63% 30.07 in 10.0 mi NW 12.7 mph - N/A   Clear
6:13 PM 15.8 °F 2.7 °F 6.8 °F 68% 30.08 in 10.0 mi NW 11.5 mph - N/A   Clear
6:33 PM 15.8 °F 2.1 °F 6.8 °F 68% 30.09 in 10.0 mi NW 12.7 mph - N/A   Clear
6:53 PM 15.8 °F 2.1 °F 6.8 °F 68% 30.10 in 10.0 mi NW 12.7 mph - N/A   Clear
7:13 PM 15.8 °F 3.4 °F 6.8 °F 68% 30.10 in 10.0 mi WNW 10.4 mph - N/A   Clear
7:33 PM 14.0 °F -0.2 °F 6.8 °F 73% 30.12 in 10.0 mi WNW 12.7 mph - N/A   Clear
7:53 PM 14.0 °F 0.5 °F 6.8 °F 73% 30.12 in 10.0 mi WNW 11.5 mph - N/A   Clear
8:13 PM 14.0 °F 1.2 °F 6.8 °F 73% 30.13 in 10.0 mi WNW 10.4 mph - N/A   Clear
8:33 PM 10.4 °F -3.3 °F 5.0 °F 79% 30.13 in 10.0 mi WNW 10.4 mph - N/A   Clear
8:53 PM 10.4 °F -3.3 °F 3.2 °F 73% 30.14 in 10.0 mi WNW 10.4 mph - N/A   Clear
9:13 PM 10.4 °F -3.3 °F 3.2 °F 73% 30.14 in 10.0 mi WNW 10.4 mph - N/A   Clear
9:33 PM 10.4 °F -4.8 °F 5.0 °F 79% 30.15 in 10.0 mi WNW 12.7 mph - N/A   Clear
9:54 PM 10.4 °F -3.3 °F 3.2 °F 73% 30.16 in 10.0 mi WNW 10.4 mph - N/A   Clear
10:13 PM 10.4 °F -4.1 °F 3.2 °F 73% 30.16 in 10.0 mi WNW 11.5 mph - N/A   Clear
10:34 PM 10.4 °F -6.6 °F 3.2 °F 73% 30.17 in 10.0 mi NW 16.1 mph - N/A   Clear
10:53 PM 10.4 °F -4.8 °F 3.2 °F 73% 30.18 in 10.0 mi NW 12.7 mph - N/A   Clear
11:13 PM 10.4 °F -4.1 °F 3.2 °F 73% 30.19 in 10.0 mi NW 11.5 mph - N/A   Clear
11:34 PM 8.6 °F -6.3 °F 1.4 °F 73% 30.19 in 10.0 mi NW 11.5 mph - N/A   Clear
11:53 PM 8.6 °F -5.5 °F 1.4 °F 73% 30.19 in 10.0 mi WNW 10.4 mph - N/A   Clear